sat.trackr.live / text

‹ back to catalog

NINGXIA-1 3

NORAD 44781 · 2019-076C

PAYLOAD ACTIVE UNKNOWN

§ Identity

Operator
Country
PRC
Launch date
2019-11-13
Launch site
TAISC
Launch vehicle
Mass (kg)
RCS (m²)

External: N2YO · Heavens-Above · Gunter

§ Orbital elements

Epoch: 2026-09-10T05:35:06.910368Z

Period
102.71 min
Inclination
44.9988°
Eccentricity
0.0009658
Mean motion
14.02011648 rev/d
Perigee alt
879.8 km
Apogee alt
893.9 km
Semi-major
7,265.0 km
B*
3.4965e-5
RAAN
158.3053°
Arg perigee
191.5217°
Mean anomaly
168.5397°
Rev number
34,979

§ Raw data

NINGXIA-1 31 44781U 19076C   26253.23271887 -.00000076  00000+0  34965-4 0  99972 44781  44.9988 158.3053 0009658 191.5217 168.5397 14.02011648349795

JSON: /api/v1/satellites/44781 · /tle

For live sub-satellite position, see the globe view (requires WebGL).

§ Visibility from observer

Set your observer location to see the next 7 days of passes ≥ 10°. The values pass through the URL so the page stays shareable.

No JS? Fill the form by hand. The geolocation button needs JavaScript.

§ Radio — SatNOGS DB

ModeDescriptionDownlinkUplink
FM S-band telemetry 2.233 GHz

1 transmitter · refreshed weekly from db.satnogs.org